Theta_e
316 317 318 319 321 321 319 317 315 316 314 313 313 314 314 312 313 314 313 315 314 313 318 315 313 313 314 314 313 327 342 345 344 348 348 346 346 344 344 343 343 342 339 334 333 335 335 336 338 337 338 337 337 339 339 338 338 338 338 337 338 339 339 339 337 336 335 335 336 336 336 337 336 336 335 336 337 337 337 337 337 336 335 335 335 335
315 317 322 322 323 322 322 323 317 313 313 311 312 312 312 312 313 313 313 316 314 315 321 318 313 313 312 314 317 330 350 352 344 348 347 346 346 343 344 343 342 340 336 334 334 333 334 334 335 335 336 337 337 338 338 338 337 337 337 337 338 338 338 338 337 336 335 335 336 336 336 336 335 336 336 336 336 337 337 337 335 335 333 333 334 334
316 320 322 320 318 317 320 323 318 315 315 313 313 313 313 313 313 315 318 320 316 314 323 321 311 313 317 320 326 335 346 345 340 345 345 345 345 342 343 342 340 338 336 335 335 333 333 333 333 334 335 336 336 337 337 337 336 336 335 336 337 337 337 336 335 335 335 336 336 335 335 335 335 335 336 337 337 337 337 336 334 334 333 332 332 333
319 322 320 316 315 315 317 319 318 315 316 317 316 314 315 314 311 316 321 323 319 315 319 320 316 327 336 333 329 327 326 328 332 339 340 341 343 341 341 341 339 338 337 336 335 333 333 333 333 333 334 334 335 335 335 335 335 335 334 334 335 335 334 334 334 334 334 335 335 335 335 335 335 336 336 337 337 337 337 336 335 334 334 333 332 333
318 318 317 316 317 317 316 318 318 315 318 322 320 315 315 314 312 314 318 322 326 324 322 323 325 334 341 337 330 324 319 318 323 333 338 337 340 340 339 338 336 336 336 335 335 334 333 332 332 333 333 334 334 334 334 333 334 334 334 334 333 333 332 333 334 334 334 334 334 335 335 334 335 335 336 336 336 336 336 335 335 335 335 333 333 333
317 315 316 316 317 316 314 317 319 318 319 322 323 319 315 315 314 313 316 321 328 325 319 320 319 322 334 338 332 325 320 320 324 333 339 336 337 340 339 338 336 335 334 334 334 334 333 332 332 333 334 334 334 334 333 333 334 334 334 334 334 333 333 333 333 334 334 333 334 334 334 334 334 335 335 336 335 335 335 334 334 334 334 333 333 333
315 315 316 317 318 316 315 316 318 318 317 318 324 324 316 316 315 314 317 319 321 321 317 319 319 320 328 328 326 325 324 326 331 335 337 336 337 338 338 337 337 336 334 333 333 333 333 332 331 332 333 333 333 333 333 333 334 334 334 334 334 334 334 334 333 334 333 333 333 333 333 334 334 335 335 335 335 334 334 333 333 333 334 333 333 333
315 316 316 317 317 317 316 316 316 317 316 319 328 327 319 317 316 317 321 318 320 322 322 326 325 320 321 320 323 329 330 330 335 338 336 336 336 336 338 336 337 336 333 334 334 333 332 331 330 330 331 332 332 332 332 333 334 334 334 334 334 335 335 334 333 333 333 333 332 333 333 333 334 334 334 334 334 334 334 331 330 332 334 334 334 334
316 317 318 317 317 317 317 317 316 315 315 320 326 323 318 317 316 319 322 322 322 318 320 330 326 315 321 330 331 334 337 334 336 340 337 336 336 334 335 334 334 333 332 333 333 332 331 330 330 330 330 331 331 332 332 332 333 333 334 334 334 334 335 334 333 332 333 332 333 333 333 333 333 334 334 334 334 334 334 331 330 332 334 334 334 335
314 316 318 316 317 318 317 316 314 314 316 317 319 317 316 319 321 322 321 321 321 315 318 329 324 313 322 338 338 337 342 336 335 339 337 336 337 335 335 333 332 332 332 332 331 331 331 330 330 330 330 330 330 331 332 332 333 333 333 333 333 333 333 334 333 333 333 332 332 332 332 333 333 333 333 333 334 334 334 333 331 333 334 334 335 334
312 315 316 315 316 317 316 315 314 314 315 315 317 316 315 322 329 334 335 327 318 319 325 329 324 317 322 336 337 334 337 337 336 339 337 335 335 335 335 334 332 332 332 331 330 331 330 329 329 329 329 329 329 331 331 331 332 332 333 332 332 332 332 333 333 333 333 333 333 333 333 332 333 333 333 333 333 333 334 334 333 333 333 334 334 334
313 312 315 316 317 315 313 314 313 314 313 313 319 317 315 323 326 331 336 324 315 324 332 329 321 319 325 333 334 331 332 336 337 338 336 335 335 333 333 333 332 332 331 331 332 331 330 329 328 328 328 327 328 329 330 331 331 332 332 332 332 332 332 333 333 334 334 334 334 334 333 332 332 332 333 333 333 333 334 333 333 334 333 333 334 334
316 313 314 315 317 315 313 315 314 314 313 313 319 318 317 321 318 323 330 324 322 326 324 322 318 319 328 330 330 331 331 333 334 334 334 334 333 332 331 330 329 328 328 328 330 331 331 330 328 327 327 326 327 327 328 329 330 331 332 332 333 333 333 333 333 334 334 334 334 334 334 332 332 332 332 333 333 333 333 333 333 333 333 333 333 334
315 315 315 314 315 315 314 316 315 316 315 313 317 317 318 321 318 321 326 322 323 322 318 320 316 321 332 331 329 330 329 329 331 330 331 331 330 330 328 328 327 326 326 326 327 329 329 328 327 326 326 326 326 326 326 327 328 330 331 331 333 333 333 333 333 333 333 333 334 334 334 333 332 332 332 333 333 333 333 332 333 333 332 332 333 333
316 318 319 315 314 315 314 315 317 319 316 313 316 317 318 326 325 322 325 322 320 320 320 319 313 322 337 335 329 329 328 328 329 328 329 328 328 328 327 328 328 327 327 326 327 328 327 326 326 326 326 327 327 326 326 326 328 329 329 330 332 333 333 333 333 333 333 333 334 334 334 334 333 332 332 332 333 333 333 333 333 333 332 332 333 333
312 317 323 317 313 315 314 315 316 316 315 312 314 316 315 322 326 321 322 326 325 323 321 321 320 325 333 332 327 328 329 328 329 328 328 328 327 327 328 328 328 327 327 326 326 327 327 326 326 326 326 326 327 326 326 327 327 329 329 329 331 331 331 333 333 333 333 333 333 334 334 333 333 333 332 333 333 333 333 333 333 332 332 333 333 333
313 317 322 316 313 315 314 316 316 314 319 317 313 317 317 317 322 321 318 320 323 321 319 325 332 331 331 332 329 328 330 330 330 329 329 329 328 328 329 328 327 326 326 326 326 327 326 326 326 326 326 326 326 326 326 326 327 329 328 329 330 329 329 330 331 331 332 333 334 334 334 334 333 333 333 333 333 333 333 333 333 332 332 333 333 333
316 318 321 316 312 316 314 314 316 314 319 320 314 316 316 312 318 326 326 323 321 322 322 326 335 336 334 336 332 330 332 332 331 331 330 330 329 329 328 326 325 324 323 323 324 325 326 326 326 326 326 326 326 326 326 326 328 329 329 329 329 327 326 329 330 330 331 333 334 333 333 333 332 332 333 333 333 334 333 333 333 332 332 333 333 333
314 315 323 319 312 316 315 313 317 315 313 317 316 315 315 317 321 321 322 321 319 320 320 321 328 333 334 334 332 333 333 332 332 331 331 331 329 327 325 323 322 321 321 320 321 322 324 326 327 327 326 327 326 326 327 326 328 329 329 329 329 328 327 329 331 331 331 332 333 332 332 332 331 331 332 333 333 333 333 333 332 332 333 333 333 333
316 314 322 322 313 314 316 316 322 321 314 314 315 312 316 325 327 319 318 320 319 321 320 319 328 334 333 333 334 333 331 331 332 332 330 328 326 324 323 322 321 320 319 319 318 319 321 324 326 326 326 326 326 326 326 326 327 327 327 327 327 328 328 328 329 330 331 331 330 331 333 332 330 330 331 332 332 332 333 332 331 331 331 332 332 332
315 310 321 327 318 314 318 319 321 322 316 314 316 314 314 318 320 318 319 319 320 326 326 325 331 332 330 332 333 331 329 330 331 329 328 325 323 321 320 319 319 318 317 317 316 317 318 320 322 324 325 325 325 325 326 326 326 325 325 325 325 326 326 327 327 328 329 329 329 332 333 331 329 329 330 330 331 331 331 331 330 330 331 331 331 331
315 316 326 329 319 316 321 319 318 319 318 320 325 322 317 316 319 319 319 319 321 324 325 329 334 332 329 330 329 328 329 328 327 326 324 322 320 318 317 316 316 315 315 315 315 315 316 317 318 320 322 323 324 324 324 325 325 325 325 325 325 325 326 326 327 327 328 329 331 331 330 329 328 328 329 330 330 330 329 329 330 331 331 331 331 330
326 327 325 319 315 318 320 319 319 320 321 326 329 328 326 325 326 326 325 326 325 321 321 330 336 331 327 328 327 327 328 326 324 322 321 319 317 315 315 314 313 313 314 313 313 313 313 314 315 316 318 319 320 322 323 324 324 324 324 324 325 325 325 326 326 327 328 329 331 330 327 327 327 328 328 329 329 329 329 330 331 331 331 330 330 329
327 326 320 316 319 322 321 320 321 322 325 330 330 329 330 328 328 330 331 333 333 326 324 333 336 329 327 327 327 326 326 324 321 320 319 317 315 314 313 313 312 312 312 311 311 311 311 311 312 313 314 315 317 318 320 322 323 324 324 324 324 325 325 326 326 327 327 328 329 330 328 327 327 327 328 329 328 328 329 330 331 331 331 330 329 329
321 322 323 319 318 321 321 320 322 325 329 331 331 329 328 327 327 325 325 333 333 324 326 334 334 330 330 328 327 325 322 320 318 316 315 315 314 313 312 311 311 310 310 309 308 309 309 309 310 311 311 312 314 315 317 319 321 322 324 324 325 325 325 326 327 327 328 327 328 329 328 327 326 327 329 328 327 327 328 330 330 329 330 330 330 330
324 326 331 328 322 321 324 326 327 328 329 328 328 328 327 329 329 322 324 334 329 321 327 336 332 329 330 328 326 323 320 318 317 314 312 312 311 311 310 310 309 308 307 307 306 306 307 307 308 308 309 309 310 312 314 316 317 319 322 323 324 325 326 326 326 327 328 328 328 328 327 327 327 328 328 327 327 327 328 329 329 328 329 330 329 328
331 327 330 334 331 329 331 330 325 326 331 330 328 328 328 328 329 328 331 334 329 326 330 332 330 330 332 329 325 322 319 318 315 313 311 310 309 309 308 308 307 306 305 305 305 305 305 306 307 306 306 306 307 309 311 313 315 317 319 321 323 325 325 326 326 327 327 328 328 328 327 327 327 328 327 326 325 326 326 328 328 328 329 329 327 326
336 328 326 330 328 326 329 327 322 324 328 327 327 327 325 327 333 337 333 325 324 330 331 327 329 332 330 325 322 319 317 315 312 311 310 308 307 307 306 306 305 304 304 304 304 304 304 305 305 305 305 305 305 306 308 310 312 314 317 319 322 323 325 325 326 326 326 327 327 327 326 327 327 327 326 325 325 325 326 327 327 327 328 328 326 325
339 330 325 326 324 321 321 322 322 323 320 317 320 322 321 327 334 335 328 321 322 331 333 329 328 329 324 319 317 315 313 311 309 308 307 307 306 306 305 305 304 304 303 303 303 303 303 303 303 304 304 303 304 305 305 306 308 310 313 316 319 321 324 325 325 325 325 325 325 326 326 326 327 326 326 325 325 325 325 325 325 326 327 326 325 325
332 329 324 325 323 320 318 317 319 320 318 315 317 317 318 323 325 325 323 321 323 329 330 326 323 320 317 315 312 311 309 307 306 306 306 306 305 305 304 304 303 303 303 302 302 302 302 302 302 302 303 303 303 303 304 305 306 307 310 313 317 321 323 324 325 324 324 324 325 326 326 326 327 326 326 325 325 325 324 323 324 325 326 324 324 324
327 324 322 326 325 320 317 315 316 317 316 316 317 316 318 320 321 322 323 322 324 325 321 320 320 316 313 311 310 308 307 306 306 305 305 304 304 304 304 303 303 302 302 301 301 301 301 301 301 301 302 302 302 303 303 304 305 306 308 311 314 319 322 324 324 324 324 324 324 325 325 326 327 326 325 324 324 324 324 323 324 325 325 324 323 323
328 322 321 329 329 321 316 315 315 316 316 317 318 316 317 320 321 321 321 321 323 322 319 320 321 316 311 309 308 307 306 306 305 304 304 304 303 303 303 302 302 302 301 301 301 300 300 300 301 301 301 301 302 302 302 303 304 305 306 308 311 316 320 321 322 322 322 323 324 325 324 325 326 326 325 325 324 325 324 323 323 323 324 324 322 322
327 326 322 327 327 321 317 316 316 320 323 322 318 314 315 318 319 319 318 318 320 320 320 322 320 313 309 308 307 306 305 305 304 304 304 303 302 302 302 302 301 301 300 300 300 300 300 300 300 301 301 301 301 301 302 302 303 304 304 306 309 314 318 319 319 320 321 321 322 323 323 324 325 326 325 325 325 325 325 323 322 322 323 323 322 321
327 330 326 324 325 322 318 316 318 323 325 320 313 311 313 315 316 317 315 315 317 316 314 314 312 308 307 307 306 305 304 304 303 303 302 302 302 301 301 301 300 300 300 300 299 300 300 300 300 300 300 300 301 301 302 302 302 303 303 305 308 311 313 315 318 319 319 319 320 321 322 322 323 324 324 324 324 325 325 324 322 321 322 323 321 319
329 328 324 322 323 321 316 316 320 323 319 314 310 310 312 313 312 313 312 311 312 311 309 309 308 306 306 305 304 303 303 302 302 301 301 301 301 301 300 300 299 299 299 299 299 299 300 300 299 300 300 300 300 301 302 302 302 302 303 304 306 308 309 311 315 316 317 318 319 319 320 320 321 322 322 322 323 323 323 322 321 320 321 321 319 318
329 327 323 320 319 318 317 317 320 318 312 310 312 311 311 312 312 313 314 312 310 309 308 308 306 304 303 303 302 302 302 301 301 301 301 300 300 300 300 299 299 299 299 299 299 299 299 299 299 299 299 300 300 301 301 302 302 302 302 302 303 305 306 307 310 313 315 317 318 319 319 319 320 321 320 321 321 321 321 321 320 320 320 320 318 317
326 327 324 321 318 317 318 317 315 314 313 313 313 310 309 311 311 313 314 312 309 308 307 306 305 304 303 302 302 302 302 302 302 301 301 300 300 300 300 299 299 299 299 299 299 299 299 299 299 299 299 300 300 300 301 301 302 301 301 301 302 303 304 304 305 308 311 314 317 319 319 319 319 319 320 321 320 320 320 320 318 317 318 318 317 317
320 322 324 323 317 314 317 316 314 316 317 314 311 308 307 308 309 310 312 312 309 307 306 305 304 303 302 302 302 302 303 305 304 301 301 300 300 300 300 299 299 299 299 299 299 298 299 299 299 299 300 300 300 300 300 301 302 301 301 301 301 302 302 302 302 304 307 311 315 318 319 319 319 318 318 319 319 319 319 318 316 315 315 316 316 316
315 318 322 323 317 315 319 319 317 317 315 311 308 307 306 306 307 310 314 314 309 306 305 304 303 303 302 303 302 303 306 308 304 300 300 300 300 300 300 300 300 299 299 299 299 299 299 298 299 299 300 300 300 300 300 301 301 301 301 301 301 301 301 301 301 302 304 308 312 316 318 319 318 318 318 318 318 317 317 317 316 315 314 314 314 315
317 319 321 321 319 318 319 318 316 314 311 307 306 305 305 306 307 312 319 317 310 306 305 304 303 303 303 304 304 304 305 306 303 299 299 299 299 299 299 299 300 300 300 300 299 299 299 298 299 299 299 300 300 300 300 300 301 301 301 301 301 301 301 301 300 301 302 306 310 314 316 318 318 318 318 318 318 317 317 316 315 315 315 314 313 314
316 316 316 317 317 316 316 315 312 310 308 306 305 304 304 307 310 316 318 312 307 307 306 304 304 304 303 304 304 302 301 301 300 299 299 299 299 300 300 300 300 300 300 300 300 299 299 299 299 299 299 299 299 299 300 300 300 301 301 301 301 301 301 300 300 299 301 304 308 311 312 314 316 317 318 319 319 318 317 317 317 317 315 314 314 315
314 314 313 315 314 312 312 312 312 311 306 304 304 304 305 310 315 315 310 306 306 307 306 303 303 302 301 301 300 299 299 299 299 299 300 299 299 299 300 300 300 300 300 300 300 300 299 299 299 299 299 299 299 299 299 300 300 301 301 301 301 301 300 299 299 299 299 301 304 307 309 310 312 315 317 318 319 319 318 318 318 318 317 316 315 315
310 311 311 311 309 310 312 312 314 313 306 302 304 306 307 311 311 307 303 303 304 304 303 302 301 300 299 299 298 298 299 299 299 299 299 299 298 299 299 299 299 300 300 300 299 299 299 299 299 299 299 299 300 299 299 299 300 300 301 301 302 302 301 299 298 299 299 299 300 303 306 307 309 312 314 316 318 319 318 318 318 318 317 316 315 313
307 309 309 306 306 310 313 311 309 307 303 302 305 307 307 306 305 302 302 302 302 301 301 300 300 299 298 298 297 298 298 298 299 299 299 299 298 298 298 299 299 299 299 299 299 299 299 299 299 299 299 299 299 300 300 299 299 300 300 301 302 302 302 300 299 299 299 298 298 300 303 305 306 309 311 313 315 317 317 317 317 316 314 313 313 311
306 305 306 304 303 305 308 306 303 302 302 302 303 304 303 302 301 301 301 300 300 300 299 299 299 298 297 297 297 297 297 297 297 298 299 299 298 298 298 299 299 299 299 299 299 299 299 299 299 298 298 298 299 299 299 300 299 299 299 300 301 302 302 302 301 300 299 297 297 298 301 303 304 306 308 309 310 312 314 313 313 312 310 309 309 308
304 303 304 304 303 303 303 302 302 303 302 302 301 301 301 301 300 300 300 300 300 300 299 299 299 298 298 298 298 297 297 297 297 299 300 299 298 298 299 299 299 299 299 299 299 299 299 299 299 298 298 298 298 298 299 299 299 299 299 299 300 301 302 302 302 301 299 298 297 297 299 302 303 304 305 306 306 307 309 309 309 308 307 306 305 305
304 304 304 304 303 304 304 302 302 302 302 301 301 300 300 300 300 300 300 300 300 300 299 299 299 299 298 298 298 298 298 298 298 299 300 299 299 298 299 299 299 299 299 299 299 298 298 298 298 298 298 297 298 298 298 299 299 299 300 300 300 301 301 302 302 301 300 299 298 298 298 299 301 303 304 305 305 305 305 306 306 306 305 304 303 303
304 304 304 303 303 303 303 302 301 301 301 300 300 300 300 300 300 300 300 300 300 300 299 299 299 299 299 299 298 298 299 299 299 300 300 299 298 298 298 299 299 299 298 298 298 298 298 298 298 297 297 297 298 298 298 299 299 299 300 300 301 301 301 301 302 302 301 299 299 298 298 297 298 299 301 302 303 304 303 303 303 303 302 301 301 301
305 304 303 303 302 303 302 302 301 301 301 300 300 300 300 300 299 300 300 299 299 299 299 299 299 298 299 299 299 299 300 300 299 298 298 297 296 296 297 298 298 299 298 298 298 298 298 298 298 297 297 297 298 298 298 298 299 299 300 300 301 301 301 301 302 302 301 301 300 299 298 298 297 298 299 299 300 300 300 300 301 301 300 300 301 301
304 303 302 302 303 303 303 302 302 302 301 301 300 300 300 300 300 300 299 299 299 299 299 299 299 298 298 299 298 298 299 298 296 295 295 295 295 295 296 297 298 298 297 297 298 298 298 297 297 297 297 297 297 298 298 298 299 299 300 300 300 300 301 301 301 301 301 300 300 299 299 298 298 298 298 298 298 298 298 298 298 299 299 299 299 299
304 303 302 304 304 303 303 302 301 301 301 300 300 300 300 300 300 299 299 299 298 298 298 298 299 299 298 298 297 296 296 295 295 295 294 293 294 295 297 298 298 297 297 297 298 298 297 297 297 297 297 297 297 298 298 297 298 298 299 299 299 300 300 300 300 300 300 300 299 299 298 298 298 298 298 298 298 298 298 298 298 298 298 298 298 298
Wind_Speed
4 4 3 5 6 6 6 7 7 6 5 4 2 2 1 1 5 5 5 5 2 1 6 8 9 11 13 5 3 2 5 6 6 8 8 7 6 5 5 5 7 7 5 7 13 18 21 23 25 25 24 23 23 24 26 26 27 28 28 28 28 28 28 30 31 31 30 28 25 25 26 28 26 25 25 23 23 22 19 18 17 19 21 21 21 20
3 5 5 7 8 7 6 6 5 4 2 1 1 1 2 2 5 6 4 5 2 2 5 5 6 11 12 3 1 3 6 5 8 11 10 10 8 7 7 8 8 5 3 6 10 15 19 21 22 23 22 23 24 25 28 28 27 27 28 29 30 29 30 32 31 31 31 30 27 24 23 21 18 19 19 19 21 21 19 18 18 18 17 18 18 19
1 4 8 8 6 5 4 4 5 3 2 1 2 1 3 3 4 6 4 5 2 2 5 4 5 8 9 5 4 4 5 5 8 9 11 12 10 8 8 8 7 6 6 8 9 12 17 17 18 19 19 22 25 26 28 27 25 24 25 27 28 29 31 31 31 30 28 27 22 15 13 14 13 14 16 18 20 20 19 18 17 16 15 16 17 18
2 5 8 6 6 6 2 3 6 3 0 1 3 3 3 3 0 3 5 6 4 1 3 1 3 5 6 6 5 3 2 1 1 2 2 7 9 9 10 10 9 9 10 12 10 9 13 14 13 12 12 14 16 18 19 18 16 14 17 20 22 23 23 22 24 24 22 21 16 8 6 9 12 13 15 17 18 18 18 18 17 17 17 17 17 18
5 7 4 7 7 6 4 2 6 4 2 3 4 5 4 4 3 5 4 6 5 4 3 4 3 5 5 5 5 2 2 6 6 5 4 4 2 3 6 7 6 4 6 10 10 8 8 7 6 4 5 7 9 11 12 11 10 8 11 14 14 14 14 13 15 16 16 16 14 9 5 6 9 12 14 15 15 16 18 18 18 18 18 17 17 18
8 6 5 7 5 5 5 4 4 6 3 4 4 7 8 7 6 5 3 5 5 4 3 5 5 4 5 4 5 5 4 7 7 7 5 6 2 2 3 5 5 3 3 5 5 6 5 6 7 6 6 8 8 10 12 14 15 15 15 16 15 14 14 15 15 14 13 13 13 11 9 9 11 12 14 16 17 18 18 17 18 18 17 16 17 18
4 3 6 6 5 6 5 5 4 7 5 2 5 8 9 8 6 4 1 2 2 1 3 4 5 2 5 5 5 7 6 9 10 10 9 6 2 1 3 4 5 4 4 4 4 6 5 6 7 7 6 7 7 7 10 14 17 20 20 20 20 20 18 18 17 14 12 11 11 12 11 11 13 14 15 16 17 17 17 16 16 17 17 17 18 19
3 5 5 5 5 5 5 4 6 8 7 4 6 7 8 8 7 5 4 3 2 2 4 4 4 2 3 5 6 8 6 10 12 11 11 9 6 1 2 3 3 5 5 6 6 6 4 4 6 7 6 6 5 6 8 11 13 16 19 20 20 21 21 17 14 13 13 13 12 13 14 13 14 15 16 16 15 15 16 15 14 17 18 18 18 19
3 5 6 6 4 4 5 6 7 10 5 7 6 6 7 7 6 6 6 3 1 2 4 6 1 2 3 5 7 7 6 9 10 11 11 11 9 6 5 5 3 4 5 6 6 5 4 4 7 9 8 6 5 6 8 12 13 13 14 15 15 16 19 18 13 11 13 15 16 16 17 15 14 15 16 15 13 13 14 14 15 18 19 18 18 19
3 6 7 7 5 5 8 7 8 11 7 5 5 4 2 2 3 4 5 4 2 3 3 7 1 2 4 5 5 6 5 5 6 8 9 9 10 10 9 7 6 5 5 6 5 4 4 5 8 9 9 7 7 7 9 12 15 16 15 13 11 11 15 18 17 14 13 16 18 19 18 17 15 15 15 15 14 13 13 15 18 20 20 19 19 18
3 2 4 5 5 7 8 5 9 13 10 4 6 3 2 3 5 3 3 4 3 1 5 8 4 4 1 4 2 3 4 3 2 4 6 7 10 10 9 8 6 5 5 5 4 4 4 5 7 9 9 7 6 7 9 11 13 15 14 13 11 12 14 15 16 17 17 19 22 21 18 18 17 17 17 17 17 16 18 19 19 20 20 19 19 17
4 1 2 3 6 6 4 2 5 10 8 3 4 3 2 2 4 4 4 3 3 3 6 6 3 4 2 4 1 3 5 4 5 4 4 7 8 8 7 6 5 4 3 3 4 4 4 4 5 7 7 6 6 7 8 9 9 10 11 12 13 16 18 16 16 18 20 22 24 21 19 19 19 20 21 22 22 21 22 22 21 20 19 18 17 16
3 3 3 3 5 5 5 1 2 2 3 4 3 5 4 1 2 2 3 0 2 4 4 4 3 3 1 3 1 4 5 7 6 4 4 6 7 7 7 6 6 5 4 3 2 2 2 1 1 2 3 3 4 4 5 5 5 9 11 13 15 16 19 19 17 17 20 22 22 19 18 20 20 20 23 25 26 25 25 24 23 22 20 19 18 18
3 4 3 2 4 4 7 4 1 0 4 6 5 5 5 3 2 1 3 1 2 4 3 3 2 2 1 1 1 2 2 4 6 5 5 6 7 8 8 7 7 7 6 6 4 3 3 3 4 5 6 8 9 9 8 9 6 7 9 11 14 13 15 18 17 17 21 23 20 18 18 21 21 22 23 25 27 27 26 26 25 24 23 22 21 21
3 4 4 5 3 3 7 7 6 5 5 6 5 6 5 5 4 3 3 3 3 3 3 4 1 2 2 2 2 3 1 4 6 4 3 6 7 6 7 8 8 8 8 7 6 6 5 5 7 7 8 9 12 12 10 10 6 6 6 6 13 14 13 16 16 17 22 22 20 21 21 22 23 22 23 24 26 27 28 28 27 26 24 23 23 22
4 5 6 5 3 3 4 5 5 7 4 2 3 5 3 6 6 2 3 5 4 2 1 1 1 1 2 3 1 2 4 5 6 4 5 7 7 6 8 8 8 8 6 6 6 5 5 5 7 7 8 9 11 12 10 8 5 7 7 4 10 14 13 15 16 17 22 23 23 25 24 22 23 24 24 25 26 27 29 29 29 27 25 24 23 22
2 4 6 4 3 4 6 6 4 6 4 1 2 4 4 5 7 5 2 1 2 3 2 1 3 1 2 2 2 2 6 6 6 5 6 7 7 8 8 8 8 7 6 6 5 4 4 5 6 5 6 7 9 9 8 6 4 6 7 6 8 10 11 14 17 18 22 26 28 29 28 25 26 27 27 27 27 28 29 29 28 27 25 24 24 23
3 3 6 1 3 8 5 6 0 1 5 4 3 6 2 3 5 4 2 2 3 2 3 2 2 3 2 1 2 3 6 6 6 6 6 7 7 8 8 8 8 8 7 8 7 5 5 6 6 6 6 6 7 7 6 5 4 5 8 10 11 11 12 16 19 20 24 29 32 31 28 26 26 28 28 28 28 28 29 29 28 27 25 24 23 22
3 1 7 3 5 6 2 5 2 5 2 4 5 5 4 3 1 2 3 1 1 2 2 3 2 2 3 2 3 5 5 6 6 5 6 7 7 7 8 8 8 8 7 8 8 7 7 8 8 8 7 7 7 8 6 3 5 6 8 12 14 15 18 20 23 24 25 28 28 27 24 23 24 26 27 29 29 29 30 30 29 27 25 24 22 21
3 2 5 5 3 2 4 3 2 3 2 2 4 3 2 3 4 3 3 3 4 3 2 1 2 1 3 3 3 6 6 7 7 5 7 8 8 7 7 7 7 8 7 7 7 7 8 11 12 11 10 10 9 9 8 4 5 7 7 8 9 13 17 20 24 25 25 24 22 21 21 21 23 24 26 28 29 30 31 30 26 23 21 21 20 20
2 3 2 6 4 1 1 1 4 6 3 1 3 2 1 2 2 2 1 2 4 4 3 2 1 3 3 2 3 7 7 5 6 6 7 7 8 8 8 8 7 7 7 6 6 6 8 12 15 15 13 12 12 12 12 9 9 10 11 12 11 7 12 16 20 22 23 22 21 21 22 23 22 22 24 26 27 29 29 26 23 20 20 21 21 20
2 3 3 2 4 1 2 4 3 5 6 4 3 3 3 3 3 4 1 2 2 3 4 5 3 4 2 1 3 6 6 4 6 7 7 7 8 8 8 8 7 6 7 7 7 7 8 11 14 16 16 15 16 16 17 16 16 17 14 13 13 9 9 12 13 16 20 22 23 23 22 19 17 18 21 23 25 25 23 22 22 22 22 23 24 24
3 4 3 1 1 2 4 6 4 3 8 7 3 2 3 3 4 5 4 3 1 3 2 4 2 3 2 2 4 4 5 6 6 7 8 8 7 7 7 7 7 7 7 8 8 7 8 11 13 15 16 16 16 18 19 19 19 20 19 16 15 12 10 11 10 10 14 19 20 19 15 10 9 13 17 19 21 19 17 19 21 22 24 26 27 27
2 4 3 1 2 4 6 6 4 6 8 7 4 3 3 2 3 5 5 3 3 3 2 3 1 3 1 3 4 5 7 8 7 7 8 7 5 6 6 7 7 7 7 8 7 8 10 13 14 15 15 15 16 18 19 21 21 20 20 19 18 16 13 13 12 10 10 12 14 15 13 9 10 13 16 15 13 12 15 18 20 22 26 28 27 26
0 1 4 4 2 3 5 5 5 5 4 4 2 4 3 4 4 4 2 3 3 3 3 5 2 3 2 5 5 7 9 9 7 7 7 6 5 4 5 6 7 7 7 8 8 9 11 12 13 14 14 15 17 18 19 21 22 21 20 20 20 17 15 13 12 11 9 7 9 13 12 10 12 16 17 13 9 11 16 19 20 23 26 27 26 26
2 2 3 5 4 3 2 2 2 1 2 2 2 4 5 5 4 3 2 4 2 2 3 4 3 2 5 8 8 8 10 9 8 8 7 6 6 5 5 6 6 6 7 9 9 9 9 10 12 14 15 16 18 19 21 22 22 21 20 20 20 18 15 13 12 11 7 6 8 11 11 12 16 17 16 13 11 14 19 20 20 22 24 26 26 25
4 3 2 5 6 6 6 5 4 2 3 2 2 5 5 3 3 3 4 3 4 3 2 1 5 7 8 9 9 8 9 8 7 7 7 6 6 6 5 5 5 6 7 7 7 7 8 9 11 14 17 19 20 21 22 22 23 22 20 19 19 17 14 11 10 9 7 6 9 11 10 12 17 16 12 12 12 15 18 21 23 24 24 25 24 23
5 3 1 5 5 3 5 3 2 4 4 3 3 5 5 4 5 6 4 1 4 6 1 3 7 11 9 8 8 7 7 8 7 7 6 6 6 5 5 6 7 8 7 7 7 8 9 9 10 14 17 20 23 26 25 24 23 22 21 20 19 15 13 10 8 6 5 5 7 10 11 12 13 13 13 14 14 15 19 23 25 25 24 23 23 23
6 1 0 4 6 5 5 4 6 7 5 6 7 5 6 5 8 7 2 1 2 4 5 7 10 9 6 6 7 7 8 8 7 7 6 6 6 5 6 7 7 8 8 8 8 8 8 8 9 12 15 20 26 28 26 25 23 22 21 22 21 17 12 9 7 5 3 3 4 6 9 10 11 13 15 15 16 18 22 25 25 24 24 24 24 24
4 1 1 5 6 6 6 4 6 8 6 6 8 7 6 4 8 9 3 1 2 3 6 11 11 5 3 4 5 6 8 8 8 7 7 7 6 6 7 7 7 7 7 8 8 7 7 8 10 13 16 21 24 24 23 23 23 23 23 23 23 20 14 9 8 7 3 2 3 5 7 9 12 16 17 16 17 18 19 21 23 24 24 24 25 24
4 1 1 4 5 5 5 5 7 8 8 7 7 7 7 5 7 8 5 4 5 5 7 11 9 4 2 4 5 5 6 8 9 8 7 6 6 6 7 6 7 7 8 8 8 7 8 9 12 15 18 21 23 22 22 23 23 24 26 25 25 22 16 11 9 7 4 2 2 3 6 9 12 16 19 19 18 15 15 16 18 21 21 22 24 24
3 2 1 4 4 1 2 3 6 8 10 8 6 7 7 6 4 4 4 3 2 6 10 9 5 3 4 6 6 5 6 8 9 8 6 5 6 6 6 6 6 7 8 8 8 8 9 10 12 15 18 20 24 25 25 24 23 24 25 25 25 23 19 16 14 11 7 5 2 1 5 10 12 15 19 21 19 16 17 17 15 18 21 22 23 23
3 4 2 3 3 1 1 2 2 5 6 3 2 3 4 3 2 3 3 3 1 6 8 5 4 6 7 7 6 6 7 6 7 7 5 5 6 5 4 5 5 5 6 7 8 8 9 10 12 15 17 20 23 23 23 23 23 23 23 23 24 24 22 21 19 16 13 9 5 1 3 9 14 15 17 20 20 19 21 19 15 17 22 23 21 21
3 4 3 2 3 3 3 1 2 2 1 1 1 2 3 2 4 4 4 5 4 5 6 5 6 8 8 6 7 8 7 6 7 7 5 4 5 4 4 4 4 5 5 6 7 8 10 12 14 16 18 20 21 21 22 23 22 22 22 23 24 25 24 23 21 19 17 14 9 4 3 7 12 15 16 18 19 19 20 18 13 16 22 22 21 20
4 4 3 2 3 3 2 3 2 2 3 2 2 3 3 4 7 8 8 8 6 8 10 10 9 8 8 8 8 8 9 8 9 8 6 6 4 2 3 4 5 5 6 6 7 8 11 14 16 17 18 20 21 22 23 24 23 23 24 24 25 25 25 24 23 21 20 17 14 9 5 6 9 13 15 15 15 16 17 15 13 18 22 21 20 21
5 4 3 2 3 3 2 2 2 3 3 1 1 3 4 3 3 5 7 7 6 4 6 10 10 8 10 10 9 8 8 8 9 7 6 6 5 3 3 3 5 5 5 6 7 9 12 14 15 16 16 17 20 23 24 24 23 24 24 25 26 26 26 26 25 23 21 18 16 13 10 9 10 12 14 14 14 13 13 13 15 21 23 21 21 21
5 4 3 2 2 3 3 2 1 1 2 1 1 2 2 2 2 1 2 3 5 5 4 9 12 10 10 10 9 8 7 7 8 6 5 5 5 4 5 4 5 5 6 8 9 10 12 13 14 15 15 18 21 22 22 22 22 24 25 26 27 28 27 28 26 24 22 19 16 14 12 11 12 13 14 15 15 15 14 14 15 20 23 24 24 23
4 3 4 3 2 2 4 2 1 1 2 2 2 0 2 2 4 2 1 1 3 4 4 8 12 11 10 9 9 7 4 5 5 2 4 5 4 4 5 6 7 7 8 10 11 12 14 15 16 17 18 20 21 21 21 21 22 25 26 26 27 28 29 28 26 23 22 20 17 14 12 12 13 15 16 16 16 16 17 17 16 16 19 23 26 26
7 3 4 5 3 2 4 3 3 3 1 2 2 1 2 2 3 2 1 0 3 5 5 8 11 10 9 8 6 4 1 2 3 1 2 4 4 4 3 4 6 8 10 11 12 13 15 16 17 20 22 23 22 20 19 20 24 26 26 25 26 28 29 27 25 23 21 19 16 13 12 12 13 14 16 17 18 19 19 19 19 19 18 20 24 27
6 5 3 4 3 3 4 2 1 2 1 1 1 2 4 3 1 1 1 2 4 7 7 8 11 10 8 5 3 1 2 1 4 2 1 3 5 6 5 4 5 6 9 11 12 14 16 19 21 22 23 22 21 20 19 20 25 27 25 25 27 27 26 24 22 22 21 19 17 15 12 11 11 11 12 13 17 21 22 21 22 22 21 20 22 26
4 4 2 3 3 3 4 3 0 1 1 1 2 4 5 3 1 3 3 2 4 7 7 8 8 7 5 4 3 2 3 3 5 3 3 5 6 6 8 10 10 9 9 10 11 14 17 20 21 21 21 21 21 21 20 21 25 26 25 26 27 25 23 22 21 24 25 23 20 18 16 14 11 10 10 10 13 17 21 24 23 21 21 21 21 23
1 2 2 2 3 2 3 3 0 1 1 1 2 4 3 2 2 2 1 2 4 7 8 7 5 6 6 6 5 5 5 5 6 5 5 6 5 6 9 13 14 14 13 13 13 14 16 18 20 20 20 20 21 21 21 22 24 25 25 26 25 22 21 22 23 25 28 27 25 22 19 17 14 12 11 11 12 13 17 22 22 18 19 22 22 23
1 1 1 1 1 2 3 2 1 1 1 1 1 2 1 1 2 3 3 4 5 7 9 7 5 6 8 8 7 7 7 7 6 6 6 5 5 7 10 12 13 13 14 14 14 15 17 18 19 20 20 19 19 20 21 22 24 24 25 25 23 20 21 23 24 26 28 29 29 26 22 20 17 15 13 12 13 14 16 20 22 20 20 22 23 23
1 1 1 1 0 1 3 3 2 2 1 1 1 1 1 2 3 5 5 5 5 6 7 7 6 6 8 9 8 7 7 7 6 5 5 4 5 8 9 11 13 14 14 14 14 15 17 18 18 19 20 21 20 20 20 20 21 22 22 22 21 20 22 23 24 27 28 28 29 28 26 23 20 17 16 14 14 15 16 18 21 22 22 23 25 26
0 2 3 2 2 2 2 2 1 1 1 2 3 3 5 6 5 5 7 6 5 4 5 7 8 7 8 9 9 7 7 6 5 5 4 3 5 7 8 10 12 13 13 14 14 15 16 18 18 19 20 21 22 21 20 19 19 19 19 18 18 20 20 21 24 26 27 27 27 27 26 26 24 22 19 18 18 18 19 20 22 23 23 23 25 26
2 4 4 3 3 4 4 4 3 3 5 6 6 5 7 7 6 6 8 7 6 6 6 7 9 8 7 8 9 8 6 6 6 5 3 4 6 8 9 9 11 12 12 12 13 14 16 17 18 19 20 21 22 22 21 19 18 17 15 14 15 17 18 19 22 24 26 27 26 25 25 26 27 26 23 21 21 23 23 24 24 24 24 24 24 25
0 1 3 4 3 2 3 3 3 6 7 7 8 8 9 9 7 6 7 8 8 8 8 9 10 9 7 7 8 8 7 6 6 5 3 3 5 6 7 9 10 10 9 10 12 14 15 17 17 18 19 20 21 21 20 19 17 15 13 13 14 15 16 18 20 22 23 24 25 26 25 25 27 28 27 25 25 25 25 25 26 25 24 23 23 24
1 0 2 4 2 2 4 5 6 8 8 7 7 7 8 10 10 9 9 9 9 10 11 11 11 9 7 7 7 7 6 5 4 3 2 2 2 2 3 5 7 8 9 10 11 13 15 16 16 17 18 20 21 21 20 19 18 15 12 12 12 13 14 16 17 18 20 22 24 24 25 25 26 27 28 29 29 28 28 26 26 26 24 21 21 22
1 2 3 5 5 5 6 7 8 9 8 8 8 8 8 9 11 11 11 10 11 11 11 12 12 11 9 8 6 5 5 3 3 4 3 2 3 3 3 4 6 8 10 11 12 13 14 15 15 17 18 19 21 21 20 19 19 17 15 13 13 13 14 14 14 15 16 19 21 23 23 25 25 24 26 28 30 31 30 28 26 26 25 22 20 21
2 4 5 6 5 4 4 6 6 6 6 6 8 10 10 9 10 12 11 10 10 11 10 10 11 11 10 8 7 6 4 4 6 7 6 6 7 8 9 10 9 9 11 13 13 13 14 14 14 16 17 19 21 22 21 19 18 18 18 17 16 16 16 15 14 14 14 15 18 20 21 23 23 23 23 24 26 28 29 28 27 26 25 23 21 20
3 4 5 4 4 4 6 6 5 6 6 7 9 10 9 8 9 11 11 10 10 10 11 11 10 9 8 9 10 10 8 6 9 11 9 8 10 11 12 12 11 10 11 13 13 13 13 14 14 15 17 18 20 21 21 20 18 17 18 18 18 18 18 18 17 16 14 13 14 17 19 21 21 21 21 21 21 22 24 26 26 25 23 21 20 19
Wind_Direction
140 160 185 190 197 198 200 185 174 172 156 154 126 120 179 275 284 280 270 280 334 289 261 237 227 249 258 242 97 66 104 132 157 146 163 171 169 180 166 175 191 197 188 159 178 193 196 195 194 195 194 193 193 193 194 194 195 196 196 198 200 203 206 208 205 202 202 201 202 205 208 211 211 214 219 222 224 223 216 209 208 208 208 206 203 200
116 173 213 214 201 191 188 182 162 143 146 132 91 301 299 244 260 275 270 302 344 174 272 261 224 250 253 247 60 136 120 145 173 163 173 175 176 182 175 190 195 180 150 154 180 195 195 193 191 191 189 188 188 191 196 199 198 198 198 200 203 205 206 207 206 204 204 205 205 207 211 210 204 207 210 211 215 215 209 207 206 206 206 204 202 201
113 212 231 220 187 146 127 134 130 132 175 129 103 159 272 248 270 295 294 317 342 177 282 267 206 252 264 277 278 194 163 194 193 178 178 174 173 178 182 191 187 169 169 179 193 198 195 192 189 187 188 189 190 193 199 201 200 200 199 201 206 208 208 207 206 204 203 204 204 207 215 208 196 198 203 207 212 210 207 208 205 200 200 199 203 206
184 243 231 192 142 135 131 116 114 103 324 176 146 151 252 257 73 287 296 324 333 308 291 202 186 275 308 316 288 222 207 346 345 293 216 179 174 181 191 188 181 180 182 187 192 193 194 191 185 186 191 193 194 197 202 204 204 205 203 206 212 214 214 213 210 210 208 202 198 199 211 208 199 198 204 209 213 212 211 211 205 200 198 194 198 203
221 240 187 124 132 159 178 152 128 140 275 262 188 171 231 257 206 218 273 324 335 351 3 66 42 319 336 331 308 311 25 37 18 346 325 276 208 165 194 179 162 176 191 194 188 184 184 164 143 154 189 201 205 205 205 205 206 207 211 216 221 221 225 231 227 227 226 211 198 194 184 180 187 193 200 204 209 215 215 211 205 204 204 197 194 197
238 232 125 114 142 152 172 210 168 163 205 297 237 195 213 239 238 240 318 359 18 0 338 66 57 305 316 320 301 318 10 41 26 13 346 296 336 68 203 169 119 111 174 194 182 167 147 117 121 142 176 196 206 208 205 202 199 199 205 213 220 223 229 238 239 242 241 219 196 189 176 164 167 177 192 201 207 215 217 213 207 206 206 202 198 197
234 174 144 155 162 154 178 221 205 162 151 278 243 200 206 230 236 231 285 47 76 282 296 67 106 248 314 329 321 330 4 39 37 25 2 335 10 116 198 159 134 140 142 142 143 146 139 130 135 139 165 190 203 215 214 209 203 200 198 200 208 214 220 233 242 244 238 217 194 185 181 178 175 176 191 206 212 215 219 221 212 204 204 202 201 200
168 143 162 164 152 165 185 224 205 154 135 233 234 183 193 225 221 185 149 138 192 233 325 6 106 133 298 291 322 344 15 33 34 31 15 7 16 63 132 112 134 139 135 143 145 145 137 123 123 132 160 184 197 213 217 215 214 210 201 196 199 205 211 225 237 237 227 212 199 191 188 189 188 188 195 203 210 216 224 228 218 204 199 197 200 202
158 155 180 165 153 181 204 217 181 147 163 237 218 175 190 207 194 164 131 130 184 65 336 313 38 96 273 279 333 0 39 29 21 35 36 31 31 38 49 48 62 97 122 135 137 138 125 113 131 153 167 175 193 213 219 217 220 222 212 202 200 205 211 214 214 217 217 214 209 202 194 187 186 196 200 199 205 218 227 227 217 205 197 193 197 201
208 188 184 156 157 202 222 216 158 157 206 223 165 176 221 73 95 118 118 121 64 63 243 265 258 135 264 297 343 11 34 7 355 27 43 47 49 51 53 55 58 77 111 124 132 137 128 132 150 166 174 180 197 214 222 220 222 224 218 207 203 206 206 202 201 204 208 215 220 216 201 185 182 192 198 199 201 208 213 213 210 205 198 193 195 199
278 223 167 147 177 210 227 209 157 183 207 155 122 173 252 18 37 49 73 99 84 334 247 245 221 139 220 294 347 19 347 327 353 20 35 47 51 54 56 60 70 86 117 133 146 138 120 137 159 171 177 185 202 220 228 225 224 222 217 207 194 191 190 188 192 199 207 220 229 228 211 196 195 193 190 195 199 199 201 205 206 205 202 198 198 198
331 329 181 206 205 195 207 209 184 202 207 146 115 134 173 305 5 22 358 49 117 251 258 235 207 110 140 253 304 7 346 25 58 28 39 60 61 62 57 51 58 73 97 123 141 137 126 140 171 181 183 190 207 225 234 229 219 213 209 199 185 183 184 178 176 187 203 219 228 229 221 213 208 197 189 191 194 196 198 201 203 204 203 202 201 200
309 237 242 268 228 169 138 206 265 231 168 151 122 108 141 238 2 349 300 16 175 242 245 202 180 95 135 236 345 14 7 33 47 23 33 61 66 66 61 52 46 44 45 52 69 95 115 128 201 228 242 259 264 274 293 297 251 212 202 194 186 182 181 179 177 186 204 217 223 225 225 225 218 205 198 195 195 196 197 198 200 200 201 201 202 203
292 289 283 263 255 189 145 155 245 221 160 166 159 148 159 141 99 261 273 258 242 251 258 238 190 147 191 203 85 69 20 38 52 32 19 51 63 62 59 54 50 43 34 29 24 21 12 3 5 351 330 325 327 329 331 331 301 219 205 200 193 182 172 174 179 196 211 216 219 222 226 229 224 216 211 204 199 199 199 200 200 200 202 203 203 205
207 284 252 197 228 193 164 180 187 173 166 175 164 143 156 153 144 204 215 187 234 244 281 291 219 164 185 155 118 127 96 58 70 58 37 55 58 61 60 55 55 49 41 37 32 30 24 18 19 9 350 334 329 331 328 324 303 230 226 211 197 186 163 162 178 206 221 219 218 224 226 226 223 221 219 213 208 203 202 203 201 200 205 207 208 208
178 241 252 231 226 171 177 197 162 138 143 205 147 112 158 182 147 141 177 179 195 181 323 300 106 117 154 120 50 87 76 68 83 83 70 65 55 57 59 56 58 55 50 50 44 38 38 41 37 18 356 339 326 325 319 312 290 241 245 231 199 190 167 162 179 211 228 225 223 226 225 223 220 219 219 217 215 210 206 206 203 201 204 208 212 211
137 251 277 292 282 246 205 191 169 159 163 151 132 152 207 176 126 114 181 218 112 139 245 238 113 86 122 118 325 48 66 63 73 69 69 69 59 54 52 51 51 47 42 42 42 40 33 37 36 16 356 339 324 321 309 293 283 249 245 239 212 193 177 180 190 208 224 225 224 225 223 222 219 216 216 216 217 216 211 209 208 203 202 206 210 211
148 262 284 251 250 271 212 158 221 236 143 118 169 189 182 95 95 107 139 4 40 151 257 320 108 149 150 173 200 116 85 76 81 83 82 71 58 54 49 47 42 35 30 23 19 20 15 13 10 7 9 354 339 337 321 287 281 270 241 228 219 202 197 206 208 211 220 221 222 223 220 219 219 216 215 215 216 217 214 213 211 205 201 203 206 209
139 272 291 235 209 281 9 110 1 326 106 131 168 166 127 126 163 110 128 131 103 178 266 353 18 179 168 201 181 141 124 117 112 103 88 66 55 55 49 45 39 31 27 16 9 3 5 10 10 17 25 11 358 354 347 307 272 270 243 227 221 204 198 210 217 220 226 226 225 226 221 220 221 218 216 215 214 214 215 215 213 207 203 202 204 208
117 122 288 276 235 299 16 79 187 266 325 74 105 113 107 137 163 156 142 152 153 182 216 51 359 252 204 222 174 142 144 142 129 103 79 64 56 55 48 43 38 32 25 13 5 1 4 11 16 25 31 24 19 16 7 336 287 297 299 282 252 211 203 218 226 229 234 236 233 232 230 228 223 218 217 215 212 213 214 214 211 207 203 202 203 208
92 113 242 287 323 9 22 301 208 199 193 103 103 145 183 82 116 147 122 117 136 153 176 149 250 263 236 230 150 146 157 152 122 94 80 70 60 52 45 41 35 31 25 13 6 6 8 12 15 21 27 28 28 27 20 1 342 346 342 327 312 265 234 240 240 236 239 242 240 235 234 231 222 214 215 214 213 214 211 207 205 205 204 200 198 201
146 135 185 279 355 38 258 304 271 185 155 144 146 166 173 132 118 133 189 284 105 122 161 159 193 262 268 87 128 146 150 127 104 96 83 68 59 52 42 37 33 25 17 9 11 12 8 10 15 20 24 25 26 28 27 17 8 10 6 349 339 319 276 267 263 247 241 242 241 237 233 228 218 214 215 213 214 212 203 197 201 203 201 195 190 189
137 114 126 214 296 239 272 314 338 83 98 96 93 113 132 123 120 133 189 239 83 92 141 117 120 270 271 113 121 129 119 100 96 97 87 70 60 56 43 30 26 21 11 7 10 10 6 10 17 20 19 20 23 28 32 29 21 16 10 1 355 346 319 307 308 283 254 246 244 242 238 225 215 223 223 218 215 207 191 193 198 196 193 190 186 182
89 92 101 132 316 314 304 313 349 34 62 70 43 25 59 76 113 136 168 181 128 140 146 87 88 261 226 115 122 117 102 90 81 81 86 83 66 56 49 32 17 12 13 11 9 10 11 15 19 18 11 11 17 22 28 31 28 20 12 5 1 355 345 336 333 320 293 271 255 252 249 230 220 232 232 222 212 196 186 193 192 188 189 187 183 180
74 115 105 106 63 348 332 334 351 6 33 65 25 347 8 52 85 118 128 80 101 177 151 122 187 249 148 129 125 110 96 83 68 62 69 77 63 42 45 40 16 3 9 10 7 11 12 14 17 14 5 6 12 18 23 27 26 19 12 9 5 357 350 347 344 334 318 299 267 253 248 229 220 231 230 216 199 191 192 192 188 186 190 188 183 181
117 126 113 124 145 174 195 240 240 256 23 51 35 2 12 49 80 131 114 80 117 191 109 121 177 195 140 135 125 111 103 93 78 64 54 55 52 33 30 34 16 6 12 8 4 5 7 10 10 7 7 9 13 16 20 22 20 15 9 7 6 1 354 344 340 336 320 293 263 246 234 218 218 226 223 202 188 196 198 194 191 190 191 190 186 182
102 73 95 130 147 178 188 206 212 144 85 78 52 12 6 29 62 94 106 126 172 144 55 250 172 144 140 136 123 113 106 99 83 65 52 44 39 30 28 29 20 19 16 10 9 7 10 11 3 3 7 10 13 17 18 19 17 11 6 2 359 359 356 343 332 328 313 284 257 237 219 211 216 217 203 182 181 194 199 199 198 195 190 187 186 184
92 55 48 99 93 137 160 156 94 80 74 72 57 10 355 32 64 76 89 146 148 122 97 245 160 139 139 131 121 115 105 96 80 63 54 43 32 25 24 21 20 21 12 7 13 13 15 13 0 1 2 3 11 17 18 18 14 8 4 1 356 354 354 347 333 320 302 269 238 221 209 203 204 199 185 176 176 182 190 196 197 193 185 180 185 189
108 102 39 87 64 57 87 96 91 90 74 51 48 18 354 35 77 86 71 321 123 139 174 170 145 134 132 121 116 114 106 98 86 73 64 51 39 29 27 26 24 19 8 5 8 7 12 10 358 359 1 5 13 16 14 13 10 5 4 3 360 356 351 344 336 326 298 234 201 194 196 190 183 184 181 175 174 177 182 189 191 186 178 176 184 190
107 70 66 99 78 48 39 58 93 101 97 59 39 22 4 40 89 96 83 16 81 113 138 132 120 98 92 110 111 108 105 99 88 76 69 60 47 33 30 27 23 18 8 5 3 357 4 9 4 5 10 12 13 12 11 10 8 8 8 6 5 4 356 343 336 332 328 164 158 162 172 176 177 179 175 167 171 180 183 186 189 185 179 181 187 187
79 133 171 90 81 40 20 43 77 96 105 82 45 23 14 30 75 90 94 85 72 75 101 112 109 89 81 107 106 101 99 95 86 72 65 62 51 41 32 22 19 17 7 1 0 360 7 14 13 13 13 10 8 9 11 10 10 14 14 10 10 12 10 7 0 345 350 92 122 142 152 166 174 173 170 166 169 180 187 189 193 190 184 187 190 185
70 125 59 69 89 42 11 78 99 100 94 78 48 17 7 13 42 70 93 100 121 133 123 118 130 153 136 120 106 82 78 89 91 82 71 60 52 46 36 25 24 18 6 358 358 3 11 14 14 15 13 8 8 12 13 10 12 17 16 12 14 20 25 30 31 20 18 46 52 60 145 161 168 168 172 174 174 181 187 183 185 187 184 186 188 184
94 116 89 88 111 142 142 142 123 93 83 56 23 359 338 345 34 41 38 24 63 149 145 151 160 140 127 126 115 88 74 78 85 85 81 68 57 46 33 32 30 18 6 1 2 6 9 9 9 11 13 12 13 14 14 16 17 18 16 17 23 29 32 35 39 38 33 38 43 42 150 160 164 165 173 180 182 186 186 180 176 179 180 182 182 179
77 98 119 125 110 131 149 111 17 58 135 256 322 334 321 14 77 76 36 11 40 105 111 99 107 113 115 120 118 107 97 84 78 77 74 71 65 45 30 26 17 10 7 5 6 5 2 5 9 11 16 19 18 18 22 26 25 23 24 27 32 35 34 34 39 42 39 41 49 74 137 156 160 162 167 179 187 186 184 185 183 175 176 178 176 172
92 89 109 102 93 121 117 63 68 195 225 243 323 341 6 61 88 88 59 28 53 98 106 101 102 109 110 109 107 106 104 95 85 75 63 62 61 51 43 25 10 15 17 11 7 1 1 5 8 11 15 19 22 25 29 30 29 30 32 34 36 38 36 35 37 38 40 45 51 65 93 119 139 151 157 167 178 179 179 188 186 172 170 171 168 168
127 121 112 86 90 117 96 78 151 229 264 267 353 351 7 32 61 79 59 28 23 55 107 118 116 114 115 116 113 108 107 97 81 65 53 56 52 42 46 29 15 17 15 14 11 5 8 10 10 10 13 20 29 32 33 32 33 35 37 37 39 41 39 38 36 33 35 42 49 56 71 93 115 134 145 151 159 164 170 179 175 167 166 164 161 162
121 124 108 81 94 127 118 97 121 262 278 234 74 11 15 4 332 6 76 42 28 31 88 123 123 124 124 124 125 129 125 99 75 46 18 35 49 45 43 40 31 24 22 28 30 26 27 27 25 23 23 29 36 37 36 37 39 41 41 39 40 41 41 39 35 30 29 35 44 57 70 83 97 109 123 137 145 151 158 162 160 157 157 158 156 153
81 117 145 134 110 111 109 102 125 176 223 189 150 56 10 353 314 304 59 63 70 84 113 128 127 130 132 133 143 156 143 86 78 38 345 4 29 39 46 47 42 40 38 37 38 40 41 40 36 35 37 40 40 39 40 42 46 47 44 41 40 41 40 37 32 30 30 32 41 59 75 81 86 96 106 118 128 137 145 147 145 141 139 141 144 143
48 56 103 109 104 117 117 128 184 193 208 184 174 269 329 334 316 332 51 142 147 135 138 136 131 135 143 149 158 173 167 95 124 129 343 3 26 28 37 44 43 50 52 46 44 45 44 45 45 44 45 43 37 37 41 45 50 50 44 40 42 41 38 34 31 32 36 38 44 60 78 84 87 92 97 105 114 122 131 135 134 132 125 120 126 130
32 20 55 106 141 153 131 132 201 195 189 209 221 289 296 289 281 148 173 209 164 150 153 148 142 146 153 150 135 40 3 135 144 132 14 48 61 53 55 57 46 51 53 45 44 49 50 51 50 47 44 40 35 38 42 47 53 52 44 42 42 39 35 32 32 39 46 50 53 60 72 84 92 95 92 98 109 116 122 124 123 125 124 114 113 119
19 16 61 126 128 123 125 122 195 247 185 192 255 287 286 273 202 173 195 199 153 149 152 148 143 140 134 120 99 69 50 79 110 113 79 71 68 60 68 73 70 63 57 46 42 48 52 53 52 49 45 42 42 44 44 49 53 50 45 45 41 35 34 36 38 46 53 56 59 62 65 72 89 104 101 101 111 117 121 122 118 119 123 120 117 118
33 27 26 89 106 111 118 110 81 257 164 142 284 286 275 235 187 178 170 119 128 134 132 129 120 105 94 89 95 106 98 86 91 92 78 73 69 61 67 73 72 67 63 59 54 52 53 53 51 49 46 44 45 46 46 49 51 48 45 43 38 36 43 46 46 50 54 55 59 62 64 66 76 97 109 114 124 128 125 122 123 129 133 130 126 123
162 98 48 66 119 111 98 100 172 227 169 122 286 283 279 240 168 136 107 86 98 113 114 110 107 110 110 106 103 108 104 92 86 78 70 68 68 68 71 75 76 72 68 65 62 60 60 58 53 49 48 46 46 46 47 48 48 46 44 40 36 43 53 54 53 55 54 55 56 57 62 66 70 82 99 111 127 137 134 128 134 145 148 142 136 128
262 168 152 187 211 120 141 168 207 248 269 276 230 148 103 89 112 123 115 93 86 101 111 108 106 112 115 115 113 109 98 87 80 76 70 62 58 62 67 71 73 73 72 70 68 67 66 64 58 54 52 50 48 47 48 48 47 45 42 38 40 49 55 56 58 58 56 56 56 55 58 63 67 74 86 96 112 127 132 131 135 139 141 140 138 131
163 114 110 99 82 98 127 177 223 289 13 46 70 87 87 83 84 98 107 103 96 101 112 114 112 111 112 113 112 105 96 90 85 78 68 55 51 48 50 59 69 73 73 72 72 71 70 68 64 58 53 50 49 49 49 50 52 47 41 40 46 51 53 54 59 61 60 59 60 59 58 61 63 68 75 82 91 103 112 119 123 124 124 126 126 122
133 108 89 98 124 106 70 47 56 76 71 69 74 76 80 83 85 93 98 98 97 99 103 109 114 114 113 114 110 105 105 106 103 93 71 53 50 46 46 54 61 67 72 72 71 71 71 70 66 59 53 48 47 48 48 50 54 52 45 45 50 52 54 56 58 61 63 64 64 63 62 62 63 65 69 72 77 88 98 107 111 110 110 113 115 115
277 87 85 103 149 138 71 53 69 88 92 91 86 83 83 85 84 88 95 99 101 102 101 103 107 107 103 104 107 110 112 112 109 101 76 51 49 51 57 59 58 64 74 74 71 72 71 68 62 55 49 45 44 47 48 48 52 55 53 51 51 53 57 59 58 59 63 67 69 66 65 66 66 66 68 70 72 79 89 98 105 105 103 105 108 110
258 151 99 96 99 92 95 107 101 92 93 95 93 93 95 95 93 91 93 98 100 99 99 100 104 105 101 98 102 109 114 116 119 118 91 38 34 42 58 68 77 84 81 75 80 83 77 67 60 54 48 44 43 46 47 48 50 54 56 55 53 52 56 58 59 61 64 69 73 72 70 71 69 67 68 70 72 75 78 84 93 96 95 98 104 107
153 100 109 112 103 90 99 119 116 98 87 89 97 102 100 101 104 101 97 100 102 100 97 97 99 103 108 109 109 110 110 103 100 105 99 79 81 90 97 107 107 93 79 78 88 91 80 69 64 60 55 50 47 48 49 51 54 54 56 61 63 61 60 61 64 68 70 72 76 78 79 78 77 75 74 73 73 74 75 76 82 86 87 91 98 103
95 107 124 129 125 121 135 146 136 112 100 101 107 108 107 108 110 107 105 106 106 107 109 107 103 102 105 107 105 99 94 91 95 98 96 89 90 94 103 111 109 92 85 91 97 92 80 72 70 67 63 56 52 51 51 54 58 58 57 62 68 71 73 73 73 77 81 80 80 83 85 84 84 83 81 80 78 78 78 78 80 83 86 88 92 96
124 147 152 130 109 119 135 138 122 106 107 112 112 110 110 112 112 111 115 118 115 117 120 117 115 114 107 108 112 112 111 111 106 100 92 88 94 101 107 112 108 97 97 104 104 95 84 77 73 70 66 60 56 55 53 54 57 58 58 60 65 69 72 72 71 72 76 81 84 86 87 89 90 90 89 90 90 89 87 85 82 81 84 87 89 92